Regional Weather Roundup
Issued by NWS

Home | Current Version | Previous Version | Text Only | Print | Product List | Glossary Off
Versions: 1 2 3 4 5 6 7 8 9 10 11 12 13 14 15 16 17 18 19 20 21 22 23 24 25 26 27 28 29 30 31 32 33 34 35 36 37 38 39 40 41 42 43 44 45 46 47 48 49 50

490
ASUS43 KLOT 260208
RWRIL

ILLINOIS REGIONAL WEATHER ROUNDUP
NATIONAL WEATHER SERVICE CHICAGO/ROMEOVILLE IL
900 PM CDT THU AUG 25 2016

NOTE: "FAIR" INDICATES FEW OR NO CLOUDS BELOW 12,000 FEET WITH NO
SIGNIFICANT WEATHER AND/OR OBSTRUCTIONS TO VISIBILITY.

* THESE STATIONS ARE NOT UNDER NWS QUALITY CONTROL. THEY ALSO MAY NOT
  REPORT WEATHER SUCH AS PRECIPITATION OR FOG.

ILZ001-002-007-009-015-016-024-260300-
NORTHWEST ILLINOIS

CITY           SKY/WX    TMP DP  RH WIND       PRES   REMARKS
MOLINE         CLOUDY    69  65  86 W3        30.08
STERLING*      PTCLDY    69  67  93 CALM      30.08R
SAVANNA*       CLOUDY    71  66  82 CALM      30.08R
$$

ILZ003-004-008-010-011-017-018-260300-
NORTH CENTRAL ILLINOIS

CITY           SKY/WX    TMP DP  RH WIND       PRES   REMARKS
ROCKFORD       CLOUDY    72  66  81 W3        30.09R
FREEPORT*      CLOUDY    69  64  84 W3        30.10S
ROCHELLE*      PTCLDY    65  65  97 CALM      30.09R
DE KALB*       PTCLDY    69  65  89 CALM      30.09R
$$

ILZ005-006-012>014-019>023-260300-
NORTHEAST ILLINOIS

CITY           SKY/WX    TMP DP  RH WIND       PRES   REMARKS
CHICAGO-OHARE  MOCLDY    73  63  70 W5        30.06R
CHICAGO-MIDWAY PTCLDY    76  64  66 NW7       30.06R
AURORA         PTCLDY    68  66  93 W3        30.08R
LANSING*       PTCLDY    74  71  91 CALM      30.06R
JOLIET*        PTCLDY    74  67  78 N3        30.07S
WAUKEGAN       PTCLDY    70  64  81 W3        30.05R
DUPAGE AIRPORT PTCLDY    70  63  78 W5        30.07R
KANKAKEE*      PTCLDY    72  71  96 W3        30.07S
WHEELING       CLEAR     73  61  65 CALM      30.07R
MORRIS*        PTCLDY    72  66  81 CALM      30.06S
ROMEOVILLE*    PTCLDY    70  67  91 NW5       30.07S
NORTHERLY ISL    N/A     70  67  90 CALM        N/A
$$

LMZ740>746-260300-
SOUTHERN LAKE MICHIGAN

STATION/POSITION SKY/WX   TEMP    WIND        PRES    VSBY  WAVE
                          AIR SEA DIR/SP/G                  HT/PER
                          (F)     (DEG/KT/KT) (MB)    (MI)  (FT/S)
SOUTHERN BUOY              74 75  210/  4/  4 1016.6R         1
WILMETTE HARBOR            70 71  220/  4/  4   N/A           0
HARRISON CRIB              73     350/  1/  1   N/A
BURNHAM HARBOR             70        CALM       N/A
CALUMET HARBOR             72     330/  2/  2 1017.0R
BURNS HARBOR               74      60/  6/ 10 1017.6R
MICHIGAN CITY              74      30/  4/  4   N/A
MICHIGAN CITY 6N           74 75   60/  2/  2   N/A           1
ST. JOSEPH                 74 76  190/  2/  2 1017.5R         1/ 4
$$

ILZ025>027-034>036-040-047-049-050-058-095>099-260300-
WEST-CENTRAL ILLINOIS

CITY           SKY/WX    TMP DP  RH WIND       PRES   REMARKS
QUINCY         CLOUDY    75  72  90 N8        30.07R
GALESBURG*     PTCLDY    69  65  89 CALM      30.09R
MACOMB*        PTCLDY    70  67  90 N3        30.10R
JACKSONVILLE*  CLOUDY    76  74  93 CALM      30.06R
PITTSFIELD*    CLOUDY    75  68  77 N3        30.08R
$$

ILZ028>032-037-038-041>044-048-051>054-059>061-260300-
CENTRAL ILLINOIS

CITY           SKY/WX    TMP DP  RH WIND       PRES   REMARKS
PONTIAC        PTCLDY    73  73  98 N3        30.08R
BLOOMINGTON    MOCLDY    76  71  85 N7        30.08R
DECATUR        PTCLDY    80  72  76 N6        30.06R HX  84
PEORIA         CLOUDY    74  71  91 VRB5      30.08R
LACON*         CLOUDY    72  66  81 CALM      30.07R
LINCOLN*       CLOUDY    78  73  85 CALM      30.06R HX  80
SPRINGFIELD    PTCLDY    77  73  87 NE5       30.06R
TAYLORVILLE    PTCLDY    76  75  96 N6        30.05R
$$

ILZ033-039-045-046-055>057-062-063-260300-
EAST-CENTRAL ILLINOIS

CITY           SKY/WX    TMP DP  RH WIND       PRES   REMARKS
CHAMPAIGN      CLEAR     75  72  90 N3        30.07R
RANTOUL*       PTCLDY    79  74  86 NW3       30.07R HX  82
MATTOON        PTCLDY    78  75  90 CALM      30.05R HX  81
PARIS*         MOCLDY    75  75  98 CALM      30.06R
$$

ILZ079-100>102-260300-
SOUTHWEST ILLINOIS

CITY           SKY/WX    TMP DP  RH WIND       PRES   REMARKS
ALTON          CLOUDY    77  73  88 CALM      30.04
BELLEVILLE     CLOUDY    82  75  79 CALM      30.03R HX  87
CAHOKIA*       MOCLDY    81  74  79 SE3       30.03R HX  86
SPARTA*        CLOUDY    82  74  76 S6        30.05R HX  88
$$

ILZ064>066-069>071-074>076-080>082-084>086-088>090-092>094-260300-
SOUTH-CENTRAL ILLINOIS

CITY           SKY/WX    TMP DP  RH WIND       PRES   REMARKS
CARBONDALE     CLOUDY    77  72  84 SE3       30.05R
CAIRO*         MOCLDY    77  75  93 CALM      30.05S
EFFINGHAM*     MOCLDY    82  78  90 SE3       30.06R HX  91
MARION         CLOUDY    82  75  78 CALM      30.07R HX  89
MT. VERNON     CLEAR     79  70  73 CALM      30.07R HX  81
CENTRALIA*     PTCLDY    80  76  89 S5        30.05R HX  84
SALEM*         PTCLDY    81  75  81 S6        30.05R HX  87
$$

ILZ067-068-072-073-078-083-087-091-260300-
SOUTHEAST ILLINOIS

CITY           SKY/WX    TMP DP  RH WIND       PRES   REMARKS
LAWRENCEVILLE  CLEAR     78  75  90 SW5       30.05S HX  81
FLORA*         PTCLDY    79  75  89 S5        30.05R HX  82
FAIRFIELD*     CLEAR     78  75  91 CALM      30.05R
HARRISBURG*    PTCLDY    77  76  95 CALM      30.06S
ROBINSON*      CLEAR     74  73  95 CALM      30.06R
CARMI*         PTCLDY    78  75  91 SW3       30.05R
$$

ABBREVIATIONS USED IN REMARKS
   TC - TEMPERATURE IN CELSIUS
  WCI - WIND CHILL INDEX
   HX - HEAT INDEX
  VSB - VISIBILITY
$$





USA.gov is the U.S. government's official web portal to all federal, state and local government web resources and services.